Previsão horária em Almachar

Hoje, 16 Junho, Quarta-feira

Tempo Temperatura Precipitação Vento Pressão Humidade
00:00 +23°C° 0 mm 1 m/s 735 mmHg 51%
01:00 +23°C° 0 mm 1 m/s 735 mmHg 50%
02:00 +23°C° 0 mm 2 m/s 734 mmHg 49%
03:00 +23°C° 0 mm 2 m/s 734 mmHg 48%
04:00 +23°C° 0 mm 2 m/s 734 mmHg 51%
05:00 +23°C° 0 mm 2 m/s 734 mmHg 53%
06:00 +23°C° 0 mm 1 m/s 734 mmHg 56%
07:00 +25°C° 0 mm 2 m/s 734 mmHg 53%
08:00 +26°C° 0 mm 2 m/s 735 mmHg 51%
09:00 +27°C° 0 mm 3 m/s 735 mmHg 48%
10:00 +28°C° 0 mm 3 m/s 735 mmHg 46%
11:00 +29°C° 0 mm 4 m/s 734 mmHg 43%
12:00 +30°C° 0 mm 4 m/s 734 mmHg 41%
13:00 +30°C° 0 mm 4 m/s 734 mmHg 41%
14:00 +30°C° 0 mm 4 m/s 734 mmHg 41%
15:00 +30°C° 0 mm 4 m/s 733 mmHg 41%
16:00 +28°C° 0.1 mm 4 m/s 733 mmHg 47%
17:00 +27°C° 0.1 mm 3 m/s 733 mmHg 52%
18:00 +25°C° 0.1 mm 3 m/s 733 mmHg 58%
19:00 +24°C° 0.5 mm 2 m/s 733 mmHg 64%
20:00 +23°C° 0.5 mm 2 m/s 734 mmHg 69%
21:00 +22°C° 0.5 mm 1 m/s 734 mmHg 75%
22:00 +22°C° 0.5 mm 1 m/s 734 mmHg 76%
23:00 +21°C° 0.5 mm 2 m/s 734 mmHg 77%

Amanhã, 17 Junho, Quinta-feira

Tempo Temperatura Precipitação Vento Pressão Humidade
00:00 +20°C° 0.5 mm 2 m/s 734 mmHg 78%
01:00 +20°C° 0.4 mm 2 m/s 734 mmHg 79%
02:00 +20°C° 0.4 mm 2 m/s 733 mmHg 80%
03:00 +19°C° 0.4 mm 2 m/s 733 mmHg 82%
04:00 +19°C° 0 mm 3 m/s 733 mmHg 81%
05:00 +19°C° 0 mm 3 m/s 733 mmHg 81%
06:00 +19°C° 0 mm 3 m/s 733 mmHg 80%
07:00 +20°C° 0 mm 3 m/s 733 mmHg 72%
08:00 +21°C° 0 mm 4 m/s 733 mmHg 63%
09:00 +23°C° 0 mm 4 m/s 734 mmHg 54%
10:00 +23°C° 0 mm 4 m/s 734 mmHg 53%
11:00 +25°C° 0 mm 4 m/s 734 mmHg 51%
12:00 +26°C° 0 mm 5 m/s 734 mmHg 49%
13:00 +26°C° 0 mm 5 m/s 734 mmHg 49%
14:00 +26°C° 0 mm 4 m/s 733 mmHg 49%
15:00 +26°C° 0 mm 4 m/s 733 mmHg 49%
16:00 +26°C° 0 mm 4 m/s 733 mmHg 50%
17:00 +26°C° 0 mm 4 m/s 733 mmHg 50%
18:00 +26°C° 0 mm 3 m/s 733 mmHg 50%
19:00 +25°C° 0 mm 3 m/s 733 mmHg 54%
20:00 +24°C° 0 mm 3 m/s 733 mmHg 57%
21:00 +22°C° 0 mm 3 m/s 733 mmHg 60%
22:00 +22°C° 0 mm 3 m/s 733 mmHg 61%
23:00 +22°C° 0 mm 3 m/s 733 mmHg 62%

Depois de amanhã, 18 Junho, Sexta-feira

Tempo Temperatura Precipitação Vento Pressão Humidade
00:00 +21°C° 0 mm 2 m/s 733 mmHg 64%
01:00 +21°C° 0 mm 2 m/s 733 mmHg 65%
02:00 +21°C° 0 mm 2 m/s 733 mmHg 67%
03:00 +20°C° 0 mm 2 m/s 733 mmHg 69%
04:00 +20°C° 0 mm 2 m/s 733 mmHg 69%
05:00 +20°C° 0 mm 2 m/s 733 mmHg 70%
06:00 +20°C° 0 mm 2 m/s 733 mmHg 71%
07:00 +23°C° 0 mm 2 m/s 733 mmHg 64%
08:00 +24°C° 0 mm 3 m/s 733 mmHg 57%
09:00 +25°C° 0 mm 3 m/s 733 mmHg 50%
10:00 +26°C° 0 mm 4 m/s 733 mmHg 48%
11:00 +27°C° 0 mm 4 m/s 733 mmHg 45%
12:00 +28°C° 0 mm 5 m/s 733 mmHg 42%
13:00 +28°C° 0 mm 5 m/s 733 mmHg 42%
14:00 +28°C° 0 mm 4 m/s 733 mmHg 42%
15:00 +28°C° 0 mm 4 m/s 733 mmHg 42%
16:00 +27°C° 0 mm 4 m/s 733 mmHg 45%
17:00 +26°C° 0 mm 3 m/s 733 mmHg 47%
18:00 +26°C° 0 mm 3 m/s 733 mmHg 50%
19:00 +25°C° 0 mm 3 m/s 733 mmHg 52%
20:00 +24°C° 0 mm 3 m/s 733 mmHg 53%
21:00 +24°C° 0 mm 3 m/s 734 mmHg 55%
22:00 +22°C° 0 mm 3 m/s 734 mmHg 56%
23:00 +22°C° 0 mm 3 m/s 734 mmHg 56%

19 Junho, Sábado

Tempo Temperatura Precipitação Vento Pressão Humidade
00:00 +22°C° 0 mm 3 m/s 734 mmHg 57%
01:00 +21°C° 0.1 mm 3 m/s 734 mmHg 59%
02:00 +21°C° 0.1 mm 3 m/s 733 mmHg 61%
03:00 +21°C° 0.1 mm 2 m/s 733 mmHg 63%
04:00 +20°C° 0.2 mm 2 m/s 733 mmHg 63%
05:00 +20°C° 0.2 mm 2 m/s 733 mmHg 64%
06:00 +20°C° 0.2 mm 2 m/s 734 mmHg 64%
07:00 +21°C° 0.1 mm 2 m/s 734 mmHg 62%
08:00 +21°C° 0.1 mm 2 m/s 734 mmHg 60%
09:00 +23°C° 0.1 mm 2 m/s 735 mmHg 58%
10:00 +24°C° 0 mm 3 m/s 734 mmHg 51%
11:00 +25°C° 0 mm 4 m/s 734 mmHg 45%
12:00 +26°C° 0 mm 5 m/s 734 mmHg 38%
13:00 +26°C° 0 mm 5 m/s 734 mmHg 38%
14:00 +27°C° 0 mm 5 m/s 734 mmHg 38%
15:00 +27°C° 0 mm 5 m/s 734 mmHg 38%
16:00 +26°C° 0 mm 5 m/s 734 mmHg 39%
17:00 +26°C° 0 mm 5 m/s 734 mmHg 41%
18:00 +26°C° 0 mm 5 m/s 734 mmHg 42%
19:00 +23°C° 0 mm 5 m/s 735 mmHg 47%
20:00 +22°C° 0 mm 4 m/s 735 mmHg 51%
21:00 +21°C° 0 mm 4 m/s 735 mmHg 56%
22:00 +20°C° 0 mm 4 m/s 735 mmHg 60%
23:00 +19°C° 0 mm 4 m/s 735 mmHg 64%

20 Junho, Domingo

Tempo Temperatura Precipitação Vento Pressão Humidade
00:00 +18°C° 0 mm 3 m/s 735 mmHg 69%
01:00 +18°C° 0 mm 3 m/s 735 mmHg 70%
02:00 +18°C° 0 mm 4 m/s 735 mmHg 71%
03:00 +18°C° 0 mm 4 m/s 735 mmHg 72%
04:00 +18°C° 0 mm 4 m/s 735 mmHg 73%
05:00 +18°C° 0 mm 4 m/s 735 mmHg 74%
06:00 +18°C° 0 mm 4 m/s 736 mmHg 74%
07:00 +19°C° 0 mm 4 m/s 736 mmHg 65%
08:00 +21°C° 0 mm 4 m/s 736 mmHg 56%
09:00 +23°C° 0 mm 4 m/s 736 mmHg 47%
10:00 +25°C° 0 mm 5 m/s 736 mmHg 43%
11:00 +26°C° 0 mm 5 m/s 736 mmHg 38%
12:00 +28°C° 0 mm 6 m/s 736 mmHg 33%
13:00 +28°C° 0 mm 6 m/s 735 mmHg 32%
14:00 +29°C° 0 mm 6 m/s 735 mmHg 30%
15:00 +29°C° 0 mm 6 m/s 735 mmHg 28%
16:00 +29°C° 0 mm 6 m/s 735 mmHg 30%
17:00 +28°C° 0 mm 6 m/s 735 mmHg 31%
18:00 +28°C° 0 mm 6 m/s 735 mmHg 33%
19:00 +27°C° 0 mm 5 m/s 735 mmHg 40%
20:00 +25°C° 0 mm 5 m/s 735 mmHg 47%
21:00 +22°C° 0 mm 4 m/s 736 mmHg 54%
22:00 +22°C° 0 mm 4 m/s 736 mmHg 59%
23:00 +21°C° 0 mm 4 m/s 736 mmHg 64%

21 Junho, Segunda-feira

Tempo Temperatura Precipitação Vento Pressão Humidade
00:00 +20°C° 0 mm 4 m/s 735 mmHg 70%
01:00 +20°C° 0 mm 4 m/s 735 mmHg 73%
02:00 +19°C° 0 mm 4 m/s 735 mmHg 76%
03:00 +19°C° 0 mm 3 m/s 735 mmHg 79%
04:00 +19°C° 0 mm 3 m/s 735 mmHg 80%
05:00 +19°C° 0 mm 3 m/s 735 mmHg 80%
06:00 +19°C° 0 mm 3 m/s 735 mmHg 81%
07:00 +21°C° 0 mm 3 m/s 735 mmHg 72%
08:00 +24°C° 0 mm 3 m/s 735 mmHg 64%
09:00 +26°C° 0 mm 4 m/s 735 mmHg 55%
10:00 +27°C° 0 mm 4 m/s 735 mmHg 51%
11:00 +28°C° 0 mm 4 m/s 735 mmHg 46%
12:00 +29°C° 0 mm 5 m/s 735 mmHg 41%
13:00 +30°C° 0 mm 5 m/s 735 mmHg 40%
14:00 +30°C° 0 mm 5 m/s 734 mmHg 38%
15:00 +30°C° 0 mm 5 m/s 734 mmHg 36%
16:00 +30°C° 0 mm 5 m/s 734 mmHg 36%
17:00 +30°C° 0 mm 4 m/s 734 mmHg 36%
18:00 +29°C° 0 mm 4 m/s 734 mmHg 36%
19:00 +28°C° 0 mm 4 m/s 734 mmHg 37%
20:00 +26°C° 0 mm 4 m/s 734 mmHg 39%
21:00 +25°C° 0 mm 3 m/s 734 mmHg 40%
22:00 +24°C° 0 mm 3 m/s 734 mmHg 41%
23:00 +24°C° 0 mm 3 m/s 734 mmHg 41%
Mostrar mais